Wind_Speed
33 33 33 33 34 33 29 26 26 26 26 27 27 29 29 30 31 32 29 27 27 27 27 26 24 23 21 20 19 18 17 16 15 14 14 13 12 12 11 11 11 11 11 12 12 13 13 14 14
35 35 36 36 35 33 29 27 28 27 28 28 28 28 29 31 31 31 29 28 28 28 27 27 25 24 22 21 20 19 18 17 16 15 14 13 13 12 12 12 12 12 12 13 13 13 14 14 15
38 38 38 38 36 33 29 29 30 29 30 29 28 28 30 31 31 31 30 29 28 28 28 27 26 25 23 22 21 20 19 18 16 16 15 14 14 13 13 13 13 13 13 13 13 14 15 15 15
40 40 41 40 36 33 31 31 33 31 31 30 29 29 30 30 30 30 30 29 29 29 28 28 27 26 24 23 22 20 20 19 18 17 16 15 14 14 14 13 13 13 13 14 14 15 15 15 16
43 43 43 41 37 34 34 33 35 33 32 31 31 30 30 30 30 30 30 30 30 29 29 28 27 26 25 24 23 22 21 20 19 18 16 15 15 15 14 13 13 13 14 14 15 15 15 16 16
46 45 45 42 38 36 36 35 36 34 33 32 32 32 30 30 30 31 31 31 30 30 29 29 27 26 25 24 23 22 21 20 19 18 17 16 16 15 14 14 14 14 15 15 15 15 16 16 17
47 47 46 43 41 38 37 37 37 36 35 34 33 33 31 30 30 31 31 31 31 30 29 29 27 26 25 24 23 22 21 20 19 18 18 17 16 16 15 15 15 15 15 15 16 16 17 18 19
49 50 49 45 43 40 39 39 39 38 36 36 36 36 33 31 31 31 32 31 31 30 29 29 28 27 26 25 24 23 22 20 19 19 18 17 17 16 16 16 16 16 16 17 17 17 18 19 20
51 53 51 45 43 41 41 41 41 40 39 39 38 37 35 32 32 32 32 32 31 30 30 29 29 28 27 26 25 24 22 21 20 19 19 18 17 17 17 17 17 17 17 18 18 19 20 20 21
54 54 49 45 44 44 43 44 43 42 41 40 40 39 35 33 33 33 32 32 31 31 31 30 29 29 28 27 26 24 23 21 21 20 19 19 18 18 18 18 18 18 18 18 19 19 20 21 22
55 53 49 48 47 47 46 46 46 44 43 41 41 40 37 35 35 34 33 33 32 33 32 31 30 29 29 28 27 25 23 22 22 21 20 19 19 19 19 19 19 19 19 19 19 20 21 22 23
55 53 52 50 49 49 49 48 48 47 44 43 43 42 41 39 37 36 35 34 34 34 33 32 31 29 29 28 27 25 24 23 22 21 21 20 20 20 19 19 19 19 19 19 20 21 22 23 24
55 54 54 53 52 51 52 51 50 49 46 45 46 46 44 41 39 38 37 36 35 34 34 33 31 30 29 28 27 25 24 23 22 21 21 20 20 20 19 19 20 20 20 20 21 22 23 24 24
54 54 55 56 55 53 54 53 53 50 49 48 48 48 45 43 41 40 39 38 36 35 34 33 32 31 30 28 27 26 24 23 22 22 21 21 20 20 20 20 20 20 21 21 22 23 24 24 25
55 56 57 57 56 54 55 57 54 51 51 51 50 49 47 45 43 42 41 39 37 36 35 34 33 31 30 29 28 27 25 24 23 22 21 21 21 20 20 20 20 21 22 23 23 24 24 25 26
55 57 58 55 55 54 56 57 53 52 53 52 52 50 49 48 46 44 42 41 40 38 37 35 34 32 31 30 28 27 26 25 23 23 21 21 21 21 21 21 21 22 23 24 24 25 25 26 27
55 56 57 55 54 55 57 57 54 53 54 54 53 52 50 50 48 46 44 43 42 40 38 37 35 33 32 31 29 28 27 26 24 24 23 22 22 22 22 22 22 23 24 25 25 26 26 27 28
53 54 55 55 54 55 57 58 55 55 55 55 54 53 52 51 50 48 46 45 44 42 40 38 37 35 34 32 30 29 28 27 26 25 24 24 23 23 23 24 24 25 25 26 27 27 28 29 30
51 53 54 54 53 55 56 57 57 56 57 57 56 55 54 52 51 50 49 47 46 45 43 40 38 37 35 33 31 30 29 28 27 26 26 25 25 25 25 26 26 26 27 27 27 28 29 30 31
52 53 54 54 53 54 57 59 59 58 58 58 57 56 55 54 53 52 50 50 48 47 44 42 40 38 36 34 33 32 31 29 28 27 26 26 26 26 26 27 27 28 28 28 29 30 30 31 32
52 53 52 52 54 56 57 60 60 60 59 59 59 58 56 55 54 53 52 51 50 48 46 44 42 40 38 36 35 34 32 31 29 28 28 28 28 28 28 28 29 29 29 30 30 31 31 32 33
50 51 52 52 53 56 57 61 61 60 61 61 60 60 58 56 55 55 53 52 51 50 48 46 44 42 40 39 37 35 34 32 31 30 30 30 30 30 30 30 30 30 31 31 32 32 33 33 34
47 49 51 52 53 55 57 61 63 60 62 61 60 60 59 58 57 56 54 53 52 51 50 48 46 45 42 41 39 37 35 34 33 32 32 31 31 31 31 31 31 31 31 32 33 33 33 34 35
45 47 50 51 53 57 56 59 64 61 60 60 60 60 60 59 58 57 56 55 54 52 51 51 49 47 45 43 41 39 37 36 35 34 34 33 33 32 32 32 32 32 32 33 34 34 34 35 35
44 47 48 50 53 57 54 59 63 57 56 58 59 59 59 59 59 59 57 56 55 54 52 52 51 49 47 45 43 41 39 38 37 36 35 35 34 34 34 33 33 34 34 34 34 34 34 35 36
40 45 48 49 50 53 53 58 59 54 53 54 57 58 59 60 60 60 58 57 56 55 53 52 51 50 48 46 44 42 41 40 39 38 37 36 35 35 35 35 35 34 34 34 35 35 35 36 36
39 43 44 45 47 49 53 54 54 53 53 52 54 56 57 58 58 58 58 57 56 56 54 52 51 50 49 48 46 44 43 42 40 39 38 38 37 36 36 36 35 35 35 35 35 35 35 36 37
39 40 41 43 45 47 49 50 52 52 51 51 50 51 53 57 58 58 57 57 56 55 54 53 52 51 50 49 48 46 44 42 42 41 40 39 38 38 37 37 36 36 35 35 35 35 36 37 37
38 42 42 43 44 45 47 48 46 47 48 49 49 49 50 53 55 56 56 56 56 54 54 54 53 51 50 49 48 46 45 44 43 42 41 40 39 38 37 37 36 36 36 35 35 36 37 37 38
34 39 42 45 46 45 44 43 40 42 44 46 45 46 47 49 52 54 54 55 55 54 53 53 53 52 50 49 48 47 45 45 43 42 41 40 39 38 38 37 37 37 36 36 36 37 37 38 38
Wind_Direction
253 251 249 247 247 246 245 244 243 240 238 236 235 234 232 232 233 235 233 230 227 228 228 229 229 229 229 230 231 232 234 237 240 242 245 247 250 255 261 267 274 280 284 288 292 295 297 299 300
251 250 248 247 246 246 244 244 242 241 239 239 238 237 233 233 233 234 233 230 228 228 229 228 229 229 229 230 231 233 235 238 240 243 246 248 251 255 261 268 274 279 283 287 291 294 296 298 299
250 249 248 247 246 246 244 243 241 240 240 241 239 237 233 232 233 234 233 231 228 228 228 228 228 228 229 230 231 233 235 239 241 244 246 249 253 257 262 268 273 278 283 287 291 293 296 298 299
249 248 247 246 245 244 243 241 241 239 240 240 238 236 234 232 234 234 233 231 229 228 228 227 227 228 228 229 230 233 236 239 242 244 246 250 253 257 262 267 272 277 282 287 290 293 296 297 299
248 247 246 246 244 242 241 239 241 238 239 238 237 236 234 233 232 232 232 231 229 227 227 226 226 227 228 229 231 233 236 239 242 244 246 250 253 256 260 266 272 277 282 286 290 292 296 298 299
247 247 246 245 243 240 239 238 240 238 237 236 235 234 233 231 231 231 231 230 227 226 225 224 224 225 226 228 231 233 236 238 241 243 245 249 253 256 260 266 272 278 283 287 290 292 296 298 299
247 246 245 244 241 238 237 237 238 238 236 235 234 232 231 230 229 229 230 229 226 224 223 222 222 224 225 227 230 232 235 239 241 242 244 249 253 256 261 267 272 279 283 286 289 291 295 297 299
245 245 243 241 240 238 237 236 236 236 234 233 232 231 229 228 228 227 228 228 226 224 223 222 222 224 225 227 229 232 234 238 241 242 245 250 253 257 263 269 274 279 283 286 288 291 295 298 299
244 243 242 240 240 238 236 235 234 235 233 232 231 230 228 227 227 227 227 227 225 222 221 222 222 224 226 228 230 233 234 238 241 242 246 249 253 260 265 270 274 278 282 285 288 291 295 297 300
243 243 243 241 239 237 235 234 233 232 232 231 231 229 227 226 226 226 226 226 224 221 221 222 223 225 226 228 230 233 235 239 241 243 246 250 255 260 266 269 273 278 282 285 289 292 295 298 300
243 243 241 239 237 236 234 233 231 231 230 230 230 230 227 224 224 224 224 224 223 221 221 222 224 225 226 228 230 233 235 238 241 243 246 250 255 261 265 269 273 278 282 285 289 292 296 299 301
243 241 239 237 235 234 233 232 231 229 228 229 229 228 226 224 223 223 223 223 223 222 221 222 223 225 226 228 229 232 235 237 239 242 246 250 256 260 265 269 273 278 282 285 289 293 297 300 301
241 240 239 236 234 233 233 231 230 228 226 227 228 228 227 224 223 222 222 222 222 222 222 222 223 224 226 227 229 231 234 237 240 243 246 251 256 260 264 268 273 277 281 285 289 293 298 299 301
240 239 238 236 233 232 232 231 229 227 226 226 227 228 227 225 224 223 223 222 222 222 222 223 224 226 227 227 228 230 233 236 240 243 247 252 256 260 264 269 273 277 281 286 290 294 297 299 302
239 238 237 235 234 233 233 231 229 226 226 226 227 227 227 226 224 224 223 222 222 223 223 223 224 225 227 228 229 230 233 236 240 244 248 252 256 261 265 269 273 278 282 287 291 294 297 300 302
237 237 236 234 235 234 234 232 228 228 227 226 226 226 226 226 225 224 223 222 222 223 223 223 224 225 226 227 229 231 234 237 240 244 248 253 257 261 264 269 274 279 283 287 291 294 297 299 301
236 236 236 234 234 235 235 232 227 228 228 227 226 226 225 225 224 224 223 223 222 223 223 224 225 226 226 228 230 232 235 237 240 244 249 254 258 261 265 269 274 280 284 287 289 293 296 298 301
238 238 237 235 234 236 235 232 228 228 228 227 226 226 225 225 224 224 224 223 223 223 224 224 225 227 228 230 231 233 235 238 241 245 250 254 258 261 266 269 274 280 284 287 289 292 295 297 300
239 238 237 234 234 237 236 233 229 228 228 227 226 226 225 225 224 224 224 224 223 224 224 225 227 229 230 232 233 235 237 240 243 247 252 255 259 262 265 269 275 279 283 286 289 292 295 297 299
239 238 237 236 235 237 237 234 230 228 227 227 226 226 225 225 224 224 224 225 224 225 225 226 228 230 232 233 235 236 238 240 244 248 252 256 259 262 266 270 274 279 283 286 289 291 294 297 299
238 238 237 238 237 237 238 236 231 228 227 227 226 225 225 225 225 225 225 225 226 226 226 227 229 231 233 234 235 237 239 242 246 250 253 257 260 263 266 271 275 279 282 285 288 291 294 296 298
238 236 238 237 238 237 236 238 232 230 229 227 226 225 225 225 225 226 226 226 227 227 228 229 230 232 233 235 236 238 241 244 247 251 254 257 261 264 267 271 275 278 281 285 288 290 292 294 297
238 235 237 238 238 238 235 238 233 231 230 227 226 226 226 226 226 226 227 227 228 229 229 230 231 233 234 235 237 239 242 245 248 251 255 258 261 264 267 271 274 277 281 284 287 289 291 293 295
237 236 236 237 238 238 234 237 236 230 230 229 227 227 227 227 227 227 227 228 228 229 230 230 231 233 234 236 238 240 242 246 249 252 256 258 261 264 268 270 273 276 280 283 286 288 290 292 295
235 234 235 236 236 238 235 237 235 229 229 229 228 227 226 227 228 227 227 228 228 230 231 232 232 234 235 237 239 241 243 246 249 252 255 259 261 264 267 270 272 276 279 282 285 287 289 291 294
235 233 233 235 237 238 236 237 234 229 229 229 228 227 227 227 228 228 228 229 229 230 232 233 234 235 236 238 239 241 243 247 250 252 255 258 262 264 267 270 273 275 278 281 284 286 288 291 293
234 232 232 234 236 238 238 237 233 230 229 229 229 228 228 228 228 228 229 229 229 230 231 233 235 236 236 238 240 241 244 247 250 253 255 258 262 264 267 270 272 275 278 280 283 285 288 290 292
235 231 226 228 233 236 237 235 232 230 229 229 229 228 229 229 228 228 229 229 230 230 231 232 234 236 237 238 240 242 244 247 250 252 255 258 261 264 267 269 272 275 277 279 282 284 286 289 292
232 229 226 227 231 233 237 235 231 232 231 230 229 227 228 229 229 229 229 229 230 231 231 231 233 235 237 239 240 242 244 247 249 252 255 258 260 263 266 269 271 274 275 278 281 283 286 289 291
236 231 228 228 230 232 235 233 229 230 229 228 227 226 228 228 228 229 229 229 230 231 231 232 232 234 236 239 241 242 244 246 249 251 255 257 260 262 265 267 270 272 274 277 280 283 286 288 290
Height
5801 5802 5804 5805 5807 5809 5812 5816 5817 5818 5820 5822 5823 5825 5827 5830 5832 5836 5837 5840 5843 5846 5849 5851 5854 5856 5858 5861 5863 5864 5866 5868 5869 5870 5871 5872 5873 5873 5874 5874 5875 5875 5875 5875 5874 5874 5873 5873 5872
5794 5796 5797 5799 5801 5803 5808 5810 5812 5813 5815 5816 5818 5821 5823 5824 5827 5829 5832 5835 5839 5842 5845 5848 5850 5853 5855 5858 5860 5862 5864 5865 5867 5868 5869 5870 5871 5871 5872 5873 5873 5873 5873 5873 5872 5872 5871 5871 5870
5787 5788 5790 5792 5795 5799 5804 5805 5806 5808 5809 5811 5814 5816 5818 5819 5822 5824 5828 5831 5835 5838 5841 5844 5847 5849 5852 5855 5857 5859 5861 5863 5864 5865 5867 5868 5869 5869 5870 5870 5871 5871 5871 5871 5870 5870 5869 5868 5868
5778 5780 5782 5786 5790 5794 5797 5798 5799 5802 5804 5807 5809 5811 5813 5816 5818 5821 5824 5827 5830 5834 5837 5839 5843 5846 5849 5851 5854 5856 5858 5860 5862 5863 5864 5865 5866 5867 5868 5868 5868 5869 5869 5869 5868 5868 5867 5866 5865
5769 5771 5774 5777 5783 5787 5790 5792 5792 5796 5798 5801 5804 5806 5808 5811 5813 5816 5819 5822 5825 5829 5832 5835 5839 5842 5845 5848 5850 5853 5855 5857 5859 5860 5862 5863 5864 5865 5865 5866 5866 5866 5866 5866 5866 5865 5864 5863 5862
5760 5762 5765 5770 5776 5780 5783 5785 5786 5789 5792 5795 5798 5800 5803 5806 5808 5811 5814 5817 5821 5825 5828 5831 5835 5838 5841 5844 5847 5849 5852 5854 5856 5857 5859 5860 5861 5862 5863 5863 5864 5864 5864 5863 5863 5862 5862 5861 5859
5751 5752 5756 5762 5767 5772 5776 5778 5780 5783 5786 5789 5792 5794 5797 5800 5804 5806 5809 5812 5816 5820 5824 5827 5831 5834 5837 5840 5843 5846 5848 5850 5852 5854 5855 5857 5858 5859 5860 5861 5861 5861 5861 5861 5860 5859 5859 5858 5856
5739 5742 5746 5752 5758 5764 5768 5769 5772 5775 5779 5783 5785 5788 5791 5796 5798 5801 5804 5807 5811 5816 5819 5823 5826 5830 5833 5836 5839 5842 5844 5847 5849 5850 5852 5854 5855 5856 5857 5857 5858 5858 5858 5857 5857 5856 5855 5854 5853
5726 5730 5736 5745 5750 5756 5758 5761 5765 5768 5772 5775 5778 5781 5786 5790 5793 5796 5799 5803 5807 5811 5815 5818 5822 5826 5829 5832 5835 5838 5840 5843 5845 5847 5849 5850 5852 5853 5854 5854 5854 5855 5854 5854 5854 5853 5852 5851 5849
5714 5719 5730 5737 5741 5744 5748 5751 5756 5759 5764 5768 5771 5775 5780 5785 5788 5791 5794 5798 5802 5806 5810 5814 5818 5821 5825 5828 5831 5834 5836 5839 5841 5843 5845 5846 5848 5849 5850 5851 5851 5851 5851 5851 5850 5849 5848 5847 5846
5703 5710 5720 5724 5728 5732 5737 5741 5746 5750 5756 5761 5765 5769 5774 5778 5782 5785 5789 5793 5797 5801 5805 5809 5813 5816 5820 5823 5827 5829 5832 5835 5837 5839 5841 5843 5844 5845 5846 5847 5847 5847 5847 5847 5846 5845 5844 5843 5841
5692 5699 5706 5711 5716 5720 5726 5731 5736 5741 5749 5753 5757 5761 5766 5771 5775 5780 5783 5787 5791 5796 5800 5804 5808 5811 5815 5819 5822 5825 5828 5830 5833 5835 5837 5838 5840 5841 5842 5843 5843 5843 5843 5843 5842 5841 5840 5839 5837
5679 5687 5693 5698 5703 5709 5714 5720 5726 5732 5739 5744 5748 5752 5758 5764 5769 5773 5777 5781 5786 5790 5794 5799 5803 5807 5810 5814 5817 5821 5823 5826 5828 5830 5832 5834 5835 5837 5838 5838 5839 5839 5839 5838 5838 5837 5835 5834 5833
5669 5674 5679 5684 5691 5697 5702 5709 5714 5724 5730 5735 5739 5744 5751 5757 5762 5767 5771 5776 5780 5785 5789 5794 5798 5802 5805 5809 5813 5816 5819 5821 5824 5826 5828 5830 5831 5832 5833 5834 5834 5834 5834 5834 5833 5832 5831 5829 5828
5655 5659 5665 5672 5680 5687 5690 5695 5706 5716 5720 5725 5730 5736 5743 5749 5755 5760 5765 5770 5775 5779 5784 5789 5793 5797 5800 5804 5808 5811 5814 5817 5819 5821 5823 5825 5826 5827 5828 5829 5830 5830 5830 5829 5828 5827 5826 5825 5823
5641 5645 5652 5664 5670 5676 5678 5685 5700 5704 5709 5715 5721 5728 5734 5741 5747 5753 5758 5763 5768 5773 5778 5783 5788 5792 5796 5799 5803 5806 5809 5812 5815 5817 5819 5820 5821 5823 5824 5824 5825 5825 5825 5824 5823 5822 5821 5819 5818
5627 5633 5642 5653 5659 5663 5665 5675 5688 5693 5698 5705 5711 5718 5725 5732 5739 5745 5751 5757 5762 5767 5772 5777 5782 5786 5790 5794 5798 5801 5804 5807 5810 5812 5814 5815 5817 5818 5819 5819 5820 5820 5819 5819 5818 5817 5816 5814 5812
5619 5625 5631 5639 5647 5650 5654 5663 5674 5680 5686 5694 5701 5708 5715 5723 5731 5737 5743 5749 5755 5760 5766 5771 5776 5780 5784 5788 5792 5796 5799 5802 5805 5807 5809 5810 5812 5813 5814 5814 5815 5814 5814 5813 5812 5811 5810 5808 5807
5607 5611 5617 5627 5635 5637 5643 5650 5659 5667 5673 5682 5690 5698 5706 5714 5722 5728 5735 5741 5747 5753 5759 5764 5769 5774 5778 5783 5787 5791 5794 5796 5799 5801 5803 5805 5806 5807 5808 5809 5809 5809 5808 5808 5807 5806 5804 5803 5801
5592 5597 5605 5614 5622 5625 5630 5636 5645 5653 5661 5671 5679 5687 5696 5704 5712 5719 5726 5732 5739 5745 5752 5757 5763 5768 5773 5777 5781 5784 5787 5790 5793 5795 5798 5799 5800 5801 5802 5803 5803 5803 5803 5802 5801 5800 5798 5797 5795
5579 5586 5595 5602 5609 5612 5617 5621 5631 5641 5649 5658 5667 5677 5685 5694 5703 5710 5717 5724 5731 5737 5744 5750 5756 5761 5766 5770 5774 5777 5781 5784 5787 5790 5792 5793 5794 5795 5796 5797 5797 5797 5796 5796 5795 5793 5792 5790 5788
5568 5578 5583 5589 5593 5598 5605 5607 5619 5629 5637 5646 5657 5666 5676 5685 5693 5701 5708 5715 5723 5730 5736 5742 5748 5753 5758 5762 5767 5771 5775 5778 5781 5783 5785 5786 5788 5789 5790 5790 5791 5791 5790 5789 5788 5787 5785 5784 5781
5559 5567 5571 5576 5580 5584 5591 5594 5605 5616 5624 5636 5647 5657 5667 5676 5684 5692 5699 5707 5714 5721 5727 5734 5739 5745 5750 5755 5760 5764 5768 5771 5773 5776 5778 5780 5781 5782 5783 5784 5784 5784 5783 5783 5781 5780 5779 5777 5775
5548 5554 5558 5562 5566 5568 5579 5583 5590 5604 5616 5628 5638 5647 5657 5666 5674 5682 5690 5697 5704 5711 5718 5724 5730 5736 5742 5747 5752 5756 5760 5763 5766 5769 5771 5773 5774 5775 5776 5777 5777 5777 5777 5776 5774 5773 5771 5770 5768
5536 5541 5545 5548 5551 5557 5570 5571 5579 5598 5608 5617 5627 5636 5646 5654 5662 5671 5679 5686 5694 5702 5709 5715 5721 5727 5733 5738 5744 5748 5752 5755 5758 5761 5763 5765 5767 5768 5769 5769 5770 5770 5769 5768 5767 5766 5764 5762 5760
5526 5531 5536 5540 5545 5552 5559 5560 5574 5590 5598 5606 5615 5625 5633 5642 5651 5659 5668 5676 5684 5692 5699 5706 5712 5719 5724 5730 5735 5740 5744 5747 5750 5753 5756 5758 5760 5761 5761 5762 5762 5762 5762 5761 5760 5758 5757 5755 5753
5515 5519 5528 5533 5537 5541 5546 5555 5566 5576 5585 5594 5603 5613 5621 5631 5640 5649 5658 5666 5674 5682 5690 5697 5703 5709 5715 5721 5726 5731 5735 5739 5742 5745 5748 5750 5752 5753 5753 5754 5754 5754 5754 5753 5752 5751 5749 5747 5745
5507 5513 5518 5522 5527 5531 5537 5545 5556 5567 5576 5585 5594 5602 5611 5620 5629 5638 5647 5655 5664 5672 5680 5687 5693 5700 5706 5711 5717 5722 5726 5730 5734 5736 5739 5742 5744 5745 5746 5746 5746 5746 5746 5745 5744 5743 5741 5740 5737
5499 5504 5508 5514 5519 5525 5530 5540 5551 5559 5569 5576 5584 5592 5600 5609 5618 5628 5637 5645 5653 5661 5668 5676 5683 5690 5696 5702 5707 5713 5717 5721 5725 5728 5731 5733 5735 5736 5737 5738 5738 5738 5738 5737 5736 5735 5734 5732 5729
5492 5496 5501 5506 5512 5518 5523 5534 5544 5552 5559 5567 5574 5582 5590 5599 5608 5617 5626 5634 5642 5650 5658 5665 5673 5680 5687 5693 5698 5703 5708 5712 5715 5719 5722 5724 5726 5728 5729 5729 5730 5730 5730 5729 5728 5727 5726 5724 5721